DW3212 Weather Reports


time (UTC)temp
F
wind
direction
speed
knots
gust
knots
rain 1hr
in
rain 24hr
in
rain mn
in
humidity
%
barometer
mb
20260507080112 40 0.0 0.0 0.00 0.65 0.00 90 1006.9
20260507074558 40 0.0 0.0 0.00 0.65 0.00 91 1007.1
20260507073054 40 0.0 0.0 0.00 0.65 0.00 90 1007.3
20260507071554 40 0.0 0.0 0.00 0.65 0.00 91 1007.1
20260507070104 40 0.0 0.0 0.00 0.65 0.00 92 1007.1
20260507064634 40 0.0 0.0 0.00 0.65 0.00 92 1007.3
20260507063109 40 0.0 0.0 0.00 0.65 0.00 92 1006.6
20260507061555 40 0.0 0.0 0.00 0.65 0.00 91 1006.7
20260507060111 40 0.0 0.0 0.00 0.65 0.00 91 1006.8
20260507054602 40 0.0 0.0 0.00 0.65 0.00 90 1007.4
20260507053107 40 0.0 0.0 0.00 0.65 0.00 91 1007.2
20260507051605 40 0.0 0.0 0.00 0.65 0.00 91 1007.4
20260507050057 41 0.0 0.0 0.00 0.65 0.00 91 1007.6
20260507044557 41 0.0 0.0 0.00 0.65 0.00 91 1007.4
20260507043058 41 0.0 0.0 0.00 0.65 0.00 91 1007.2
20260507041554 41 0.0 0.0 0.00 0.65 0.00 92 1007.1
20260507040054 41 0.0 0.0 0.00 0.65 0.00 92 1007.0
20260507034556 42 0.0 0.0 0.00 0.65 0.65 92 1007.3
20260507033055 42 0.0 0.0 0.00 0.65 0.65 91 1007.1
20260507031556 42 0.0 0.0 0.00 0.65 0.65 92 1007.2
20260507030056 43 0.0 0.0 0.00 0.65 0.65 92 1007.0
20260507024558 43 0.0 0.0 0.00 0.66 0.65 92 1007.3
20260507023056 44 0.0 0.0 0.01 0.66 0.65 91 1007.1
20260507021557 44 0.0 0.0 0.01 0.66 0.65 92 1006.9
20260507020115 44 0.0 0.0 0.01 0.66 0.65 92 1007.0
20260507014600 45 0.0 0.0 0.02 0.66 0.65 92 1007.3
20260507013055 45 0.0 0.0 0.01 0.65 0.64 92 1006.9
20260507011556 46 0.0 0.0 0.01 0.65 0.64 92 1006.8
20260507010111 46 0.0 0.0 0.02 0.65 0.64 92 1006.6
20260507004557 47 0.0 0.0 0.01 0.64 0.63 91 1006.4
20260507003059 49 0.0 0.0 0.01 0.64 0.63 92 1006.1
20260507001611 50 0.0 0.0 0.02 0.64 0.63 93 1005.8
20260506234601 50 0.0 0.0 0.02 0.63 0.62 94 1005.4
20260506233102 52 0.0 0.0 0.03 0.63 0.62 93 1005.4
20260506231612 53 0.0 0.0 0.04 0.62 0.61 93 1005.0
20260506230131 54 0.0 0.0 0.03 0.61 0.60 93 1004.7
20260506224605 55 0.0 0.0 0.03 0.61 0.60 94 1004.5
20260506223100 55 0.0 0.0 0.02 0.60 0.58 94 1004.4
20260506221624 56 0.0 0.0 0.02 0.58 0.57 94 1004.3
20260506220129 56 0.0 0.0 0.03 0.58 0.57 93 1004.3
20260506214555 56 0.0 0.0 0.04 0.58 0.57 93 1004.4
20260506213109 56 0.0 0.0 0.07 0.58 0.57 93 1004.3
20260506211600 56 0.0 0.0 0.06 0.56 0.55 94 1004.3
20260506210105 56 0.0 0.0 0.06 0.55 0.54 94 1004.5
20260506204606 56 0.0 0.0 0.06 0.54 0.52 93 1004.5
20260506203057 56 0.0 0.0 0.04 0.51 0.50 93 1004.5
20260506201602 56 0.0 0.0 0.04 0.50 0.49 93 1004.5
20260506200058 56 0.0 0.0 0.04 0.49 0.48 94 1004.7
20260506194600 56 0.0 0.0 0.07 0.48 0.47 94 1004.6
20260506193059 55 0.0 0.0 0.08 0.47 0.46 95 1004.9
20260506191604 55 0.0 0.0 0.09 0.46 0.45 95 1004.9
20260506190057 55 0.0 0.0 0.10 0.45 0.44 96 1005.1
20260506184634 55 0.0 0.0 0.12 0.41 0.40 96 1005.3
20260506183102 55 0.0 0.0 0.15 0.39 0.38 96 1005.2
20260506181559 55 0.0 0.0 0.16 0.37 0.36 96 1005.5
20260506180057 55 0.0 0.0 0.17 0.35 0.34 95 1005.9
20260506174556 55 0.0 0.0 0.14 0.29 0.28 95 1006.0
20260506173059 55 0.0 0.0 0.13 0.24 0.23 94 1006.4
20260506171607 55 0.0 0.0 0.13 0.21 0.20 94 1006.6
20260506170059 55 0.0 0.0 0.12 0.18 0.17 94 1006.8
20260506164557 55 0.0 0.0 0.10 0.15 0.14 94 1007.1
20260506163106 55 0.0 0.0 0.07 0.11 0.10 94 1007.0
20260506161557 56 0.0 0.0 0.05 0.08 0.07 94 1007.1
20260506160109 56 0.0 0.0 0.04 0.06 0.05 93 1007.1
20260506154559 56 0.0 0.0 0.04 0.05 0.04 92 1007.3
20260506153055 56 0.0 0.0 0.03 0.04 0.03 91 1007.5
20260506151559 57 0.0 0.0 0.02 0.03 0.02 89 1007.8
20260506144603 58 0.0 0.0 0.00 0.01 0.00 84 1008.2
20260506143058 59 0.0 0.0 0.00 0.01 0.00 81 1008.1
20260506141555 58 0.0 0.0 0.00 0.01 0.00 83 1008.1
20260506140104 58 0.0 0.0 0.00 0.01 0.00 83 1007.9
20260506134601 58 0.0 0.0 0.00 0.01 0.00 83 1007.7
20260506133057 57 0.0 0.0 0.00 0.01 0.00 85 1007.7
20260506131607 56 0.0 0.0 0.00 0.01 0.00 85 1007.8
20260506130056 56 0.0 0.0 0.00 0.01 0.00 87 1008.0
20260506124555 54 0.0 0.0 0.00 0.01 0.00 89 1008.3
20260506123057 53 0.0 0.0 0.00 0.01 0.00 89 1008.4
20260506121603 52 0.0 0.0 0.00 0.01 0.00 92 1008.3
20260506120104 51 0.0 0.0 0.00 0.01 0.00 91 1008.3
20260506114558 51 0.0 0.0 0.00 0.02 0.00 92 1007.6
20260506113057 51 0.0 0.0 0.00 0.02 0.00 92 1008.1
20260506111605 50 0.0 0.0 0.00 0.02 0.00 93 1008.4
20260506104608 50 0.0 0.0 0.00 0.02 0.00 93 1008.2
20260506103059 50 0.0 0.0 0.00 0.02 0.00 93 1008.1
20260506101555 50 0.0 0.0 0.00 0.02 0.00 93 1008.1
20260506100114 51 0.0 0.0 0.00 0.02 0.00 93 1007.9
20260506094602 51 0.0 0.0 0.00 0.02 0.00 94 1008.0
20260506093101 51 0.0 0.0 0.00 0.02 0.00 94 1008.1
20260506091558 51 0.0 0.0 0.00 0.02 0.00 94 1008.2
20260506090055 52 0.0 0.0 0.00 0.02 0.00 93 1008.2
20260506084603 52 0.0 0.0 0.00 0.02 0.00 93 1008.1
20260506083056 52 0.0 0.0 0.00 0.02 0.00 93 1008.2
20260506081556 52 0.0 0.0 0.00 0.02 0.00 93 1008.5